Wind_Speed
10 10 15 12 12 12 7 14 18 21 20 22 22 22 20 15 18 14 25 10 14 20 25 24 23 29 29 31 30 30 30 29 27 25 25 24 21 24 23 24 28 26 25 23
13 15 15 19 21 21 22 25 26 25 21 25 22 19 20 20 17 19 26 31 24 29 33 26 43 42 41 28 31 33 35 34 31 28 27 29 30 27 26 25 26 27 28 30
19 22 22 18 23 24 25 30 27 28 26 26 22 20 13 16 18 29 34 35 29 34 46 49 49 43 33 30 30 35 37 40 40 39 39 38 38 38 39 37 34 34 35 34
20 20 21 23 24 30 33 29 28 31 26 25 28 28 26 26 27 28 28 33 39 43 48 53 46 42 34 41 38 39 38 41 45 49 50 52 51 47 47 43 43 40 42 39
33 32 29 27 31 31 27 27 34 32 30 29 21 26 27 32 34 35 38 43 47 50 44 36 35 35 31 34 39 37 35 38 37 39 45 48 45 45 48 50 51 46 39 40
29 29 28 29 29 30 34 36 31 31 32 34 30 31 33 36 34 34 36 38 38 39 34 30 31 30 29 34 35 39 36 50 38 41 38 37 41 46 46 44 46 46 46 43
31 31 28 27 25 24 31 29 35 37 36 38 36 31 35 37 34 31 29 33 37 35 35 32 31 28 27 34 35 32 33 30 29 35 43 47 45 48 47 41 38 41 42 46
33 32 36 42 40 38 36 41 44 44 43 42 39 38 35 32 30 30 29 30 31 35 39 28 30 26 26 31 36 28 45 43 42 42 43 48 48 47 43 39 48 43 37 43
36 36 34 37 41 41 39 41 44 44 43 46 41 39 33 31 30 30 29 32 31 32 35 40 33 33 33 34 39 44 47 46 46 43 40 42 46 51 49 53 55 48 54 43
34 40 41 42 41 41 41 42 43 43 41 41 43 41 30 31 31 29 30 32 35 37 37 39 41 42 39 37 39 41 45 48 48 47 47 48 52 55 58 58 60 69 66 64
38 39 42 42 42 42 43 43 43 41 39 38 40 41 30 32 32 33 34 37 40 41 43 44 45 45 47 43 41 42 45 50 51 51 53 52 53 54 60 66 70 72 71 75
42 41 42 45 44 43 43 42 41 39 37 38 39 44 36 31 32 34 36 36 36 38 41 43 44 46 49 52 52 50 52 57 59 58 58 51 49 52 63 67 71 74 72 75
43 44 45 48 45 42 44 40 38 37 38 40 39 42 39 34 36 38 37 36 37 40 42 45 46 47 53 56 61 64 65 65 69 67 63 55 50 56 49 49 62 68 76 76
46 47 44 45 46 41 41 39 39 39 40 39 41 39 40 38 42 42 40 39 39 41 44 49 52 50 54 56 62 69 74 78 73 67 63 53 52 49 31 32 38 57 69 75
43 43 42 42 44 40 36 41 43 41 42 39 42 42 37 40 42 42 44 44 44 43 47 53 56 54 59 65 70 73 79 74 57 54 46 47 44 37 26 32 49 48 51 59
41 40 39 38 39 39 40 46 44 44 42 40 44 43 41 42 41 42 45 48 50 52 54 58 62 60 69 70 71 77 76 54 48 39 29 37 36 26 20 22 50 51 55 58
40 37 37 36 40 39 44 46 46 45 45 44 45 48 47 49 47 48 49 53 56 60 60 62 66 67 70 71 75 74 78 66 50 26 28 38 44 40 25 35 59 55 57 60
38 40 40 38 41 39 46 49 47 45 46 47 49 51 52 53 54 55 56 59 60 64 65 65 67 68 69 70 77 66 69 69 52 21 28 47 50 53 58 45 42 41 45 50
39 40 40 41 41 42 47 51 49 47 51 51 52 54 55 56 58 56 59 63 63 65 66 65 67 68 68 71 67 62 65 60 43 21 25 42 57 47 50 48 46 44 45 46
40 42 43 46 44 45 51 54 53 52 54 55 57 58 59 61 60 61 63 66 68 68 68 66 67 66 65 68 56 55 68 62 31 21 15 36 50 51 52 54 54 53 52 50
46 47 46 47 50 51 56 55 56 57 58 59 58 61 64 66 65 63 67 69 70 68 68 65 66 66 67 65 55 53 66 59 36 28 23 15 32 53 55 53 54 50 52 49
49 52 53 53 55 56 57 61 60 62 63 65 65 67 71 73 70 69 70 71 70 68 69 65 69 66 47 60 62 66 59 55 41 25 23 21 20 21 26 26 26 27 23 23
55 60 59 63 65 67 67 68 68 68 69 70 70 71 73 74 74 73 72 73 74 73 73 69 71 71 62 63 64 61 54 50 46 32 25 25 23 24 27 29 30 28 29 30
59 64 65 66 69 70 72 74 74 75 75 76 77 77 79 79 77 77 75 78 82 80 76 75 74 72 69 66 62 54 50 48 43 37 30 29 28 24 25 26 28 28 26 24
64 68 70 72 77 77 79 81 83 85 86 87 88 88 86 86 85 83 79 81 86 85 81 77 74 71 68 65 60 56 48 46 43 40 36 31 28 26 26 29 29 26 25 26
74 79 81 81 84 84 82 84 86 87 86 87 87 87 87 89 88 85 80 77 77 76 72 67 63 62 58 57 48 47 46 45 42 36 33 36 31 31 31 32 31 29 30 30
Wind_Direction
226 234 241 256 278 250 322 286 299 305 294 295 298 292 296 299 317 323 299 327 339 308 316 302 311 311 304 291 284 274 276 276 272 270 270 269 271 266 266 266 268 264 267 260
239 263 272 277 266 260 269 289 299 303 289 294 307 290 290 285 268 286 258 294 307 307 322 284 308 307 311 291 286 284 275 274 269 267 270 270 264 259 256 258 270 267 264 262
260 289 272 286 266 259 272 281 287 289 288 290 293 299 272 287 294 279 263 282 283 290 308 303 300 304 296 296 302 282 275 270 267 265 268 272 270 264 257 256 261 262 260 258
257 257 275 269 263 278 287 282 288 294 294 299 304 300 296 294 293 293 284 270 265 288 295 293 296 296 288 289 283 288 279 268 269 269 270 268 271 270 265 263 264 261 258 261
255 266 273 275 278 281 274 288 294 293 294 297 298 296 299 302 297 292 288 286 284 282 286 290 296 298 303 303 297 294 286 278 280 277 264 280 276 277 268 264 257 255 257 259
263 269 270 274 280 280 273 286 288 300 296 298 301 301 297 293 291 286 283 282 285 290 289 294 289 288 292 285 289 284 269 281 286 280 274 277 280 274 270 266 258 259 260 263
263 270 270 273 277 274 278 280 292 298 296 295 298 295 291 294 293 291 294 295 293 288 287 289 283 280 279 269 282 298 285 285 280 279 282 287 283 278 270 258 266 259 261 261
264 270 278 280 278 277 281 281 288 294 296 293 296 298 301 300 297 296 290 287 291 299 296 295 297 294 287 288 296 297 294 288 306 298 284 278 277 277 273 253 260 258 264 245
268 263 269 273 274 275 279 284 287 290 293 296 297 304 301 297 291 285 288 292 293 295 297 300 298 303 302 296 293 298 297 302 303 296 289 279 271 273 270 260 251 254 245 244
270 266 270 281 282 280 282 285 289 293 295 297 299 302 298 287 284 288 292 293 299 297 298 304 309 306 304 300 297 297 299 299 295 294 288 280 274 275 269 265 254 248 245 250
270 268 272 275 277 280 284 287 289 291 291 289 291 294 292 287 290 297 301 306 313 312 309 307 304 304 306 302 299 297 296 294 291 291 290 286 279 276 270 264 261 256 250 245
265 269 273 276 278 283 285 285 287 284 281 282 284 287 287 285 291 299 307 305 302 301 302 303 305 311 310 308 306 303 301 300 292 288 287 282 276 271 269 266 259 259 257 253
272 274 275 278 281 278 280 280 277 277 280 283 286 289 289 291 293 300 302 301 303 303 309 312 311 316 315 314 312 309 307 300 296 288 281 273 276 275 270 267 258 255 255 253
273 274 276 276 278 275 272 272 272 274 276 279 282 285 293 300 301 301 302 303 305 309 312 312 313 315 317 314 316 314 312 310 300 288 275 264 255 247 241 264 269 265 261 256
269 269 269 270 273 272 269 273 271 271 274 278 284 286 291 295 298 302 303 306 306 308 308 309 310 315 321 323 321 319 320 314 303 293 271 247 238 233 251 254 255 255 265 265
268 267 266 266 267 271 272 265 269 272 276 281 281 285 288 290 293 296 299 302 305 310 313 315 315 321 323 324 324 325 329 330 320 304 257 221 210 194 203 230 241 254 261 268
269 265 265 266 267 266 265 271 274 277 282 284 287 290 294 295 296 295 297 301 307 313 314 316 319 322 322 326 329 336 342 345 344 307 217 195 183 182 193 238 237 248 254 260
267 267 266 262 267 273 274 273 274 279 282 286 286 289 292 295 298 302 304 303 305 306 312 316 317 320 325 325 336 337 344 343 346 307 222 193 193 208 218 236 247 254 260 259
269 268 267 269 271 272 276 277 279 283 284 284 286 286 289 291 290 294 296 298 303 307 311 314 313 319 325 328 337 336 347 342 339 325 229 210 204 216 230 241 250 267 269 270
272 276 279 277 275 274 276 281 284 282 284 285 286 289 290 290 293 297 299 300 302 304 307 311 313 318 324 328 328 335 341 339 330 336 275 229 227 234 241 253 262 268 271 273
279 277 275 275 277 280 281 280 281 282 283 285 287 288 290 289 292 296 296 297 299 303 305 310 313 317 322 327 326 323 334 331 319 316 320 291 242 239 248 257 264 268 272 272
280 281 283 283 282 280 279 280 281 283 285 287 288 288 286 289 292 292 294 296 298 300 303 309 310 314 320 316 316 318 323 323 310 308 306 306 297 285 269 260 269 270 266 270
283 284 284 284 285 286 285 284 285 286 287 285 284 284 285 287 288 291 293 295 297 298 301 304 305 308 308 308 309 313 317 315 300 297 300 296 298 295 287 270 269 271 273 275
287 287 289 288 289 289 289 289 289 289 288 287 287 287 288 287 288 289 291 292 293 295 298 300 302 304 306 309 311 308 311 312 295 287 292 294 289 286 283 281 275 276 280 281
286 285 285 287 286 285 287 288 287 287 288 288 287 286 286 285 285 287 288 288 289 291 294 296 298 300 303 305 309 310 311 310 298 289 285 296 286 282 287 298 286 280 281 282
287 287 286 287 287 288 287 287 288 289 287 285 285 286 287 288 288 288 288 287 288 290 291 292 295 298 300 303 308 309 309 304 295 280 284 289 287 287 291 295 290 282 281 284
Height
11045 11047 11046 11047 11046 11042 11041 11041 11044 11042 11041 11041 11045 11039 11040 11037 11034 11033 11029 11029 11028 11024 11023 11022 11024 11023 11022 11022 11021 11020 11018 11019 11017 11018 11018 11017 11017 11017 11016 11014 11012 11013 11013 11013
11043 11042 11041 11044 11041 11042 11041 11040 11038 11039 11039 11037 11036 11037 11034 11031 11032 11028 11024 11021 11024 11022 11020 11018 11017 11015 11013 11012 11015 11015 11014 11012 11009 11008 11008 11008 11008 11007 11005 11003 11001 11001 11001 11002
11040 11039 11038 11036 11038 11038 11038 11038 11035 11035 11034 11032 11031 11030 11032 11027 11026 11024 11020 11019 11017 11018 11010 11008 11011 11011 11005 11003 11006 11005 11004 11001 10998 10997 10996 10996 10996 10999 10997 10994 10991 10990 10988 10990
11038 11037 11035 11035 11032 11033 11030 11029 11029 11027 11030 11031 11025 11021 11021 11021 11018 11016 11016 11015 11012 11013 11009 11004 11002 11003 11000 10995 10996 10997 10989 10986 10985 10983 10984 10985 10986 10988 10992 10989 10983 10980 10979 10981
11032 11032 11032 11030 11029 11027 11025 11025 11024 11022 11021 11019 11024 11017 11015 11014 11011 11007 11004 11000 10999 11003 11002 10996 10993 10990 10996 10987 10982 10981 10980 10976 10974 10971 10972 10975 10974 10977 10977 10973 10968 10965 10969 10970
11028 11026 11026 11025 11023 11021 11020 11020 11016 11017 11013 11011 11016 11014 11012 11012 11009 11008 11003 10998 10990 10985 10991 10992 10988 10987 10984 10982 10971 10971 10961 10963 10963 10958 10961 10961 10962 10962 10960 10958 10957 10954 10954 10956
11021 11020 11019 11018 11017 11016 11013 11012 11010 11008 11007 11005 11007 11009 11006 11003 11000 11000 10997 10991 10983 10981 10979 10986 10983 10983 10977 10968 10965 10959 10961 10960 10956 10952 10949 10946 10948 10946 10946 10948 10946 10943 10942 10944
11014 11014 11012 11012 11011 11011 11007 11004 11003 11001 10997 10995 10997 10998 10995 10993 10991 10991 10991 10987 10980 10972 10968 10976 10971 10972 10967 10957 10954 10954 10948 10947 10939 10940 10941 10937 10935 10934 10930 10931 10930 10929 10929 10929
11007 11006 11005 11005 11004 11003 11001 10997 10994 10993 10989 10983 10985 10986 10986 10984 10983 10983 10982 10978 10976 10969 10964 10958 10961 10960 10958 10951 10946 10940 10936 10928 10926 10928 10928 10928 10926 10920 10916 10916 10913 10912 10914 10914
11000 11000 10999 10997 10996 10993 10992 10991 10987 10982 10979 10974 10970 10973 10978 10976 10975 10974 10974 10970 10965 10961 10956 10951 10947 10946 10947 10945 10937 10933 10926 10920 10917 10913 10915 10915 10912 10905 10897 10897 10895 10895 10897 10894
10994 10994 10992 10990 10988 10985 10984 10981 10978 10973 10971 10968 10963 10964 10970 10966 10965 10963 10962 10959 10952 10948 10945 10941 10939 10936 10931 10933 10930 10927 10921 10914 10907 10903 10897 10897 10893 10889 10878 10877 10874 10876 10877 10878
10985 10985 10984 10980 10978 10978 10975 10972 10968 10965 10963 10961 10958 10951 10958 10960 10958 10955 10953 10950 10947 10943 10938 10935 10929 10925 10918 10911 10908 10910 10907 10896 10887 10883 10882 10880 10875 10871 10862 10855 10855 10855 10858 10860
10976 10974 10972 10967 10970 10968 10963 10962 10959 10958 10954 10951 10950 10944 10944 10950 10946 10945 10945 10942 10939 10934 10929 10922 10919 10914 10905 10895 10886 10879 10877 10873 10866 10857 10854 10855 10854 10847 10847 10837 10834 10838 10837 10838
10964 10963 10962 10958 10957 10959 10955 10953 10952 10951 10948 10945 10940 10940 10938 10937 10931 10931 10931 10930 10928 10923 10918 10911 10907 10904 10896 10886 10874 10861 10848 10836 10821 10814 10815 10825 10826 10830 10828 10826 10822 10818 10819 10818
10955 10953 10954 10951 10946 10949 10948 10944 10942 10943 10939 10938 10930 10930 10936 10931 10925 10921 10918 10915 10913 10913 10907 10900 10894 10888 10880 10867 10855 10842 10825 10803 10790 10776 10779 10787 10801 10812 10817 10810 10804 10802 10799 10801
10946 10944 10944 10941 10940 10939 10938 10933 10934 10932 10930 10929 10923 10923 10923 10922 10919 10915 10909 10904 10899 10895 10890 10884 10874 10870 10860 10852 10839 10822 10803 10779 10763 10753 10756 10763 10783 10800 10798 10794 10776 10786 10783 10784
10934 10935 10934 10934 10930 10933 10927 10924 10922 10921 10919 10919 10915 10910 10909 10906 10906 10903 10899 10891 10884 10879 10877 10871 10862 10856 10846 10835 10821 10802 10784 10768 10752 10746 10748 10756 10768 10774 10773 10765 10772 10769 10767 10771
10925 10924 10924 10925 10921 10922 10914 10910 10913 10913 10909 10908 10904 10900 10897 10894 10890 10887 10883 10877 10874 10868 10862 10858 10851 10845 10836 10823 10811 10793 10777 10763 10753 10749 10749 10753 10758 10758 10757 10756 10757 10757 10757 10761
10915 10915 10914 10912 10912 10911 10903 10899 10900 10902 10896 10897 10895 10890 10888 10885 10879 10881 10874 10866 10862 10857 10851 10848 10838 10835 10825 10814 10802 10787 10777 10766 10757 10752 10753 10752 10757 10755 10752 10749 10748 10749 10751 10756
10906 10904 10902 10900 10901 10899 10892 10889 10889 10890 10887 10885 10881 10878 10873 10868 10866 10863 10858 10851 10846 10844 10838 10836 10827 10821 10815 10805 10795 10783 10772 10767 10761 10754 10753 10754 10754 10755 10753 10749 10747 10745 10746 10747
10893 10891 10892 10889 10886 10885 10881 10881 10878 10875 10874 10871 10870 10865 10859 10853 10853 10852 10843 10836 10831 10829 10825 10823 10814 10808 10802 10797 10789 10780 10770 10763 10757 10752 10748 10748 10750 10751 10749 10747 10744 10741 10738 10737
10883 10879 10878 10877 10874 10872 10869 10864 10865 10863 10860 10856 10855 10850 10841 10837 10838 10836 10831 10821 10817 10816 10809 10810 10799 10794 10788 10784 10781 10775 10766 10758 10752 10746 10743 10739 10737 10737 10736 10735 10734 10731 10728 10726
10872 10865 10866 10861 10856 10851 10849 10846 10846 10844 10842 10839 10836 10832 10827 10823 10821 10818 10815 10804 10798 10797 10795 10796 10788 10781 10779 10776 10771 10765 10757 10750 10744 10739 10736 10733 10731 10730 10729 10727 10725 10723 10720 10717
10858 10851 10849 10845 10839 10835 10829 10824 10823 10822 10820 10816 10813 10810 10804 10800 10801 10799 10798 10789 10779 10778 10780 10778 10774 10770 10765 10760 10758 10753 10744 10738 10734 10731 10729 10727 10724 10723 10721 10720 10717 10714 10711 10709
10842 10836 10833 10829 10819 10817 10815 10810 10803 10797 10793 10790 10784 10782 10780 10778 10778 10779 10781 10773 10761 10758 10761 10759 10755 10754 10751 10746 10743 10736 10729 10724 10720 10717 10718 10717 10715 10714 10713 10711 10709 10705 10702 10700
10823 10815 10810 10810 10800 10797 10796 10786 10778 10774 10771 10767 10764 10760 10755 10748 10748 10748 10753 10749 10742 10737 10739 10741 10738 10737 10734 10731 10727 10721 10717 10711 10707 10705 10706 10705 10704 10703 10702 10700 10699 10696 10693 10692